Merrill, WI

1:03 PM CST on December 16, 2017 (GMT -0600)
Merrill Municipal

Weather History for KRRL - December, 2012

Change the Weather History Date:

Monday, December 3, 2012

  Actual Average Record
Temperature  
Mean Temperature 45 °F -  
Max Temperature 55 °F 28 °F 61 °F (1982)
Min Temperature 35 °F 9 °F -25 °F (1919)
Degree Days  
Heating Degree Days 20    
Moisture  
Dew Point 43 °F    
Average Humidity 95    
Maximum Humidity 100    
Minimum Humidity 81    
Precipitation  
Precipitation 0.00 in - - ()
Sea Level Pressure  
Sea Level Pressure 29.76 in    
Wind  
Wind Speed 7 mph (South)    
Max Wind Speed 18 mph    
Max Gust Speed 28 mph    
Visibility 4 miles    
Events Fog , Rain    
Averages and records for this station are not official NWS values.
T = Trace of Precipitation, MM = Missing Value Source: NWS Daily Summary

Daily Weather History Graph

Daily Weather History Graph

Search for Another Location

Airport or City:

Trip Planner

Search our weather history database for the weather conditions in past years. The results will help you decide how hot, cold, wet, or windy it might be!

Date:

Astronomy

Dec. 03, 2012 Rise Set
Actual Time 7:20 AM CST 4:17 PM CST
Civil Twilight 6:46 AM CST 4:50 PM CST
Nautical Twilight 6:09 AM CST 5:27 PM CST
Astronomical Twilight 5:34 AM CST 6:03 PM CST
Moon 9:11 PM CST (12/3) 10:36 AM CST (12/3)
Length of Visible Light 10h 03m
Length of Day
8h 56m
Waning Gibbous, 78% of the Moon is Illuminated
Dec 3
Waning Gibbous
Dec 6
Last Quarter
Dec 13
New
Dec 19
First Quarter
Dec 28
Full

Hourly Weather History & Observations

Time (CST) Temp. Windchill Dew Point Humidity Pressure Visibility Wind Dir Wind Speed Gust Speed Precip Events Conditions
12:15 AM 35.6 °F 31.7 °F 35.6 °F 100% 29.96 in 0.5 mi SE 4.6 mph - N/A Fog Fog
12:35 AM 35.6 °F 28.0 °F 35.6 °F 100% 29.94 in 0.5 mi SE 10.4 mph - N/A Fog Fog
12:55 AM 37.4 °F 32.1 °F 37.4 °F 100% 29.95 in 0.5 mi South 6.9 mph - N/A Fog Fog
1:15 AM 37.4 °F 33.8 °F 37.4 °F 100% 29.96 in 0.5 mi SSE 4.6 mph - N/A Fog Fog
1:35 AM 37.4 °F 32.8 °F 37.4 °F 100% 29.95 in 0.5 mi SSE 5.8 mph - N/A Fog Fog
1:55 AM 37.4 °F 32.8 °F 37.4 °F 100% 29.95 in 0.5 mi SE 5.8 mph - N/A Fog Fog
2:15 AM 37.4 °F 33.8 °F 37.4 °F 100% 29.95 in 0.5 mi SSE 4.6 mph - N/A Fog Fog
2:35 AM 37.4 °F 33.8 °F 37.4 °F 100% 29.95 in 0.5 mi SSE 4.6 mph - N/A Fog Fog
2:55 AM 37.4 °F 33.8 °F 37.4 °F 100% 29.94 in 0.5 mi SE 4.6 mph - N/A Fog Fog
3:15 AM 37.4 °F 32.8 °F 37.4 °F 100% 29.92 in 0.5 mi SSE 5.8 mph - N/A Fog Fog
3:35 AM 37.4 °F 32.8 °F 37.4 °F 100% 29.91 in 0.5 mi SSE 5.8 mph - N/A Fog Fog
3:55 AM 37.4 °F 32.1 °F 37.4 °F 100% 29.89 in 0.5 mi SSE 6.9 mph - N/A Fog Fog
4:15 AM 37.4 °F - 37.4 °F 100% 29.89 in 0.5 mi Calm Calm - N/A Fog Fog
4:35 AM 37.4 °F 34.9 °F 37.4 °F 100% 29.88 in 0.5 mi SE 3.5 mph - N/A Fog Fog
4:55 AM 39.2 °F 37.0 °F 39.2 °F 100% 29.88 in 0.8 mi SSE 3.5 mph - N/A   Overcast
5:15 AM 41.0 °F 36.4 °F 41.0 °F 100% 29.87 in 0.8 mi SSE 6.9 mph - N/A   Overcast
5:35 AM 41.0 °F 38.0 °F 41.0 °F 100% 29.86 in 0.8 mi SSE 4.6 mph - N/A   Overcast
5:55 AM 41.0 °F 37.1 °F 41.0 °F 100% 29.85 in 0.8 mi SE 5.8 mph - N/A   Overcast
6:15 AM 41.0 °F 37.1 °F 41.0 °F 100% 29.85 in 0.8 mi SSE 5.8 mph - N/A   Overcast
6:35 AM 41.0 °F 36.4 °F 41.0 °F 100% 29.84 in 0.8 mi SSE 6.9 mph - N/A   Overcast
6:55 AM 41.0 °F 37.1 °F 41.0 °F 100% 29.83 in 0.8 mi SE 5.8 mph - N/A   Overcast
7:15 AM 41.0 °F 38.0 °F 41.0 °F 100% 29.83 in 0.5 mi SSE 4.6 mph - N/A Fog Fog
7:35 AM 41.0 °F 38.0 °F 41.0 °F 100% 29.81 in 0.8 mi SE 4.6 mph - N/A   Overcast
7:55 AM 41.0 °F 36.4 °F 41.0 °F 100% 29.80 in 0.2 mi SE 6.9 mph - N/A Fog Fog
8:15 AM 41.0 °F 35.8 °F 41.0 °F 100% 29.78 in 0.2 mi SE 8.1 mph - N/A Fog Fog
8:35 AM 42.8 °F 38.6 °F 42.8 °F 100% 29.78 in 0.2 mi SSE 6.9 mph - N/A Fog Fog
8:55 AM 42.8 °F 41.1 °F 42.8 °F 100% 29.76 in 0.2 mi SSE 3.5 mph - N/A Fog Fog
9:15 AM 42.8 °F 38.0 °F 42.8 °F 100% 29.76 in 0.5 mi SSE 8.1 mph - N/A Fog Fog
9:35 AM 42.8 °F 38.6 °F 42.8 °F 100% 29.75 in 0.2 mi SSE 6.9 mph - N/A Fog Fog
9:55 AM 44.6 °F 40.7 °F 44.6 °F 100% 29.74 in 0.5 mi SSE 6.9 mph - N/A Fog Fog
10:15 AM 44.6 °F 43.1 °F 44.6 °F 100% 29.73 in 0.8 mi SSE 3.5 mph - N/A   Overcast
10:55 AM 46.4 °F 42.9 °F 46.4 °F 100% 29.71 in 0.5 mi SSE 6.9 mph - N/A Fog Fog
11:15 AM 46.4 °F 42.4 °F 46.4 °F 100% 29.69 in 0.5 mi South 8.1 mph - N/A Fog Fog
11:35 AM 46.4 °F 42.4 °F 46.4 °F 100% 29.68 in 0.5 mi SSE 8.1 mph - N/A   Light Drizzle
11:55 AM 46.4 °F 42.9 °F 46.4 °F 100% 29.66 in 0.8 mi SSE 6.9 mph - N/A   Overcast
12:15 PM 48.2 °F - 48.2 °F 100% 29.64 in 1.0 mi SSE 11.5 mph - N/A Rain Light Rain
12:35 PM 50.0 °F - 50.0 °F 100% 29.63 in 1.2 mi South 6.9 mph - N/A   Overcast
12:55 PM 50.0 °F - 50.0 °F 100% 29.62 in 1.2 mi South 6.9 mph - N/A   Overcast
1:15 PM 50.0 °F - 50.0 °F 100% 29.62 in 1.2 mi South 6.9 mph - N/A   Overcast
1:35 PM 50.0 °F - 50.0 °F 100% 29.62 in 1.5 mi South 5.8 mph - N/A   Overcast
1:55 PM 51.8 °F - 51.8 °F 100% 29.61 in 1.0 mi SSW 8.1 mph - N/A Rain Rain
2:15 PM 51.8 °F - 51.8 °F 100% 29.59 in 1.5 mi SSW 8.1 mph - N/A   Light Drizzle
2:35 PM 53.6 °F - 53.6 °F 100% 29.59 in 2.5 mi SSW 9.2 mph 16.1 mph N/A   Overcast
2:55 PM 53.6 °F - 53.6 °F 100% 29.59 in 3.0 mi SSW 11.5 mph 27.6 mph N/A   Overcast
3:15 PM 55.4 °F - 53.6 °F 94% 29.59 in 4.0 mi SSW 13.8 mph 19.6 mph N/A   Overcast
3:55 PM 55.4 °F - 53.6 °F 94% 29.60 in 4.0 mi SSW 10.4 mph 18.4 mph N/A   Overcast
4:15 PM 55.4 °F - 53.6 °F 94% 29.60 in 5.0 mi SSW 8.1 mph - N/A   Overcast
4:35 PM 55.4 °F - 53.6 °F 94% 29.59 in 5.0 mi SSW 10.4 mph 17.3 mph N/A   Overcast
4:55 PM 55.4 °F - 53.6 °F 94% 29.60 in 5.0 mi SW 9.2 mph - N/A   Overcast
5:15 PM 55.4 °F - 53.6 °F 94% 29.61 in 4.0 mi WSW 15.0 mph 23.0 mph N/A Rain Light Rain
5:35 PM 55.4 °F - 53.6 °F 94% 29.61 in 7.0 mi West 18.4 mph 27.6 mph N/A   Mostly Cloudy
5:55 PM 55.4 °F - 51.8 °F 88% 29.62 in 7.0 mi West 13.8 mph 21.9 mph N/A   Mostly Cloudy
6:15 PM 53.6 °F - 50.0 °F 88% 29.63 in 7.0 mi West 13.8 mph 20.7 mph N/A   Scattered Clouds
6:55 PM 50.0 °F - 44.6 °F 82% 29.66 in 10.0 mi West 16.1 mph 25.3 mph N/A   Scattered Clouds
7:15 PM 50.0 °F - 44.6 °F 82% 29.68 in 10.0 mi WNW 11.5 mph 19.6 mph N/A   Scattered Clouds
7:35 PM 48.2 °F - 42.8 °F 82% 29.70 in 10.0 mi WNW 15.0 mph 24.2 mph N/A   Mostly Cloudy
7:55 PM 46.4 °F 40.7 °F 42.8 °F 87% 29.72 in 10.0 mi WNW 12.7 mph 21.9 mph N/A   Scattered Clouds
8:15 PM 46.4 °F 40.7 °F 42.8 °F 87% 29.73 in 10.0 mi West 12.7 mph 19.6 mph N/A   Clear
8:35 PM 46.4 °F 40.4 °F 41.0 °F 81% 29.74 in 10.0 mi West 13.8 mph 21.9 mph N/A   Scattered Clouds
8:55 PM 44.6 °F 38.1 °F 41.0 °F 87% 29.76 in 10.0 mi West 13.8 mph 20.7 mph N/A   Scattered Clouds
9:15 PM 44.6 °F 38.8 °F 39.2 °F 81% 29.77 in 10.0 mi West 11.5 mph 17.3 mph N/A   Clear
9:35 PM 42.8 °F 36.2 °F 39.2 °F 87% 29.78 in 10.0 mi West 12.7 mph 19.6 mph N/A   Clear
9:55 PM 42.8 °F 36.2 °F 37.4 °F 81% 29.79 in 10.0 mi West 12.7 mph 20.7 mph N/A   Clear
10:15 PM 42.8 °F 36.6 °F 37.4 °F 81% 29.80 in 10.0 mi West 11.5 mph - N/A   Clear
10:35 PM 41.0 °F 34.7 °F 35.6 °F 81% 29.80 in 10.0 mi West 10.4 mph - N/A   Clear
10:55 PM 39.2 °F 33.6 °F 35.6 °F 87% 29.81 in 10.0 mi West 8.1 mph - N/A   Clear
11:15 PM 39.2 °F 33.0 °F 35.6 °F 87% 29.81 in 10.0 mi West 9.2 mph - N/A   Clear
11:35 PM 39.2 °F 33.0 °F 33.8 °F 81% 29.82 in 10.0 mi West 9.2 mph - N/A   Clear
11:55 PM 37.4 °F 30.8 °F 33.8 °F 87% 29.82 in 10.0 mi West 9.2 mph - N/A   Clear